Weather History for Monett, MO

Change the Weather History Date:

Friday, March 29, 2013

  Actual Average (KJLN) Record (KJLN)
Temperature  
Mean Temperature 57 °F 53 °F  
Max Temperature 64 °F 64 °F 87 °F (1967)
Min Temperature 50 °F 41 °F 20 °F (1964)
Degree Days  
Heating Degree Days 8 13  
Month to date heating degree days 484  
Since 1 July heating degree days 3738  
Cooling Degree Days 0 1  
Month to date cooling degree days 3  
Year to date cooling degree days 4  
Growing Degree Days 7 (Base 50)    
Moisture  
Dew Point 49 °F    
Average Humidity 76    
Maximum Humidity 100    
Minimum Humidity 59    
Precipitation  
Precipitation 0.12 in 0.12 in 0.99 in (1985)
Month to date precipitation 3.16  
Year to date precipitation 7.51  
Sea Level Pressure  
Sea Level Pressure 30.14 in    
Wind  
Wind Speed 7 mph (ESE)    
Max Wind Speed 12 mph    
Max Gust Speed 17 mph    
Visibility 10 miles    
Events Rain , Thunderstorm    
T = Trace of Precipitation, MM = Missing Value Source: NWS Daily Summary

Daily Weather History Graph

Daily Weather History Graph

Search for Another Location

Airport:

Trip Planner

Search our weather history database for the weather conditions in past years. The results will help you decide how hot, cold, wet, or windy it might be!

Date:

Astronomy

Mar. 29, 2013 Rise Set
Actual Time 7:05 AM CDT 7:36 PM CDT
Civil Twilight 6:39 AM CDT 8:02 PM CDT
Nautical Twilight 6:09 AM CDT 8:32 PM CDT
Astronomical Twilight 5:37 AM CDT 9:04 PM CDT
Moon 10:31 PM CDT (3/29) 8:19 AM CDT (3/29)
Length of Visible Light 13h 22m
Length of Day
12h 30m
Waning Gibbous, 93% of the Moon is Illuminated
Mar 29
Waning Gibbous
Apr 2
Last Quarter
Apr 10
New
Apr 18
First Quarter
Apr 25
Full

Hourly Weather History & Observations

Time (CDT) Temp. Dew Point Humidity Pressure Visibility Wind Dir Wind Speed Gust Speed Precip Events Conditions
12:15 AM 53.6 °F 44.6 °F 72% 30.13 in 10.0 mi SSE 9.2 mph - N/A   Clear
12:35 AM 53.6 °F 44.6 °F 72% 30.13 in 10.0 mi South 9.2 mph - N/A   Clear
12:55 AM 53.6 °F 44.6 °F 72% 30.13 in 10.0 mi South 8.1 mph - N/A   Clear
1:15 AM 53.6 °F 44.6 °F 72% 30.13 in 10.0 mi South 9.2 mph - N/A   Mostly Cloudy
1:35 AM 55.4 °F 44.6 °F 67% 30.14 in 10.0 mi South 6.9 mph - N/A Thunderstorm Scattered Clouds
1:55 AM 53.6 °F 44.6 °F 72% 30.14 in 10.0 mi SSE 4.6 mph - N/A Thunderstorm Clear
2:15 AM 51.8 °F 44.6 °F 76% 30.14 in 10.0 mi SSE 3.5 mph - N/A Thunderstorm Thunderstorm
2:35 AM 53.6 °F 44.6 °F 72% 30.14 in 10.0 mi South 3.5 mph - N/A   Scattered Clouds
2:55 AM 53.6 °F 44.6 °F 72% 30.14 in 10.0 mi South 3.5 mph - N/A   Mostly Cloudy
3:15 AM 51.8 °F 44.6 °F 76% 30.14 in 10.0 mi Calm Calm - N/A   Overcast
3:35 AM 51.8 °F 44.6 °F 76% 30.13 in 10.0 mi SSE 3.5 mph - N/A   Scattered Clouds
3:55 AM 51.8 °F 44.6 °F 76% 30.13 in 10.0 mi SSE 4.6 mph - N/A   Mostly Cloudy
4:15 AM 51.8 °F 46.4 °F 82% 30.13 in 10.0 mi SE 3.5 mph - N/A   Overcast
4:35 AM 51.8 °F 46.4 °F 82% 30.14 in 10.0 mi NNE 8.1 mph - N/A   Overcast
4:55 AM 53.6 °F 48.2 °F 82% 30.14 in 10.0 mi NE 11.5 mph 17.3 mph N/A   Overcast
5:15 AM 51.8 °F 50.0 °F 94% 30.14 in 10.0 mi ENE 9.2 mph - N/A Rain Light Rain
5:35 AM 50.0 °F 50.0 °F 100% 30.14 in 10.0 mi NE 9.2 mph - 0.01 in Rain , Thunderstorm Light Thunderstorms and Rain
5:55 AM 50.0 °F 50.0 °F 100% 30.13 in 10.0 mi ENE 11.5 mph - 0.01 in   Overcast
6:15 AM 51.8 °F 50.0 °F 94% 30.14 in 10.0 mi East 5.8 mph - N/A   Overcast
6:35 AM 50.0 °F 50.0 °F 100% 30.14 in 10.0 mi East 9.2 mph - N/A   Overcast
6:55 AM 50.0 °F 50.0 °F 100% 30.15 in 10.0 mi ENE 10.4 mph - N/A   Overcast
7:15 AM 51.8 °F 48.2 °F 88% 30.17 in 10.0 mi ENE 10.4 mph - N/A   Overcast
7:35 AM 51.8 °F 50.0 °F 94% 30.18 in 10.0 mi ENE 6.9 mph - N/A   Overcast
7:55 AM 50.0 °F 50.0 °F 100% 30.18 in 7.0 mi ENE 8.1 mph - 0.04 in Rain Light Rain
8:15 AM 50.0 °F 50.0 °F 100% 30.19 in 10.0 mi East 4.6 mph - N/A   Light Drizzle
8:35 AM 50.0 °F 50.0 °F 100% 30.19 in 5.0 mi East 5.8 mph - 0.04 in Rain Rain
8:55 AM 50.0 °F 50.0 °F 100% 30.18 in 5.0 mi ESE 6.9 mph - 0.06 in Rain Rain
9:15 AM 50.0 °F 50.0 °F 100% 30.18 in 10.0 mi ESE 8.1 mph - N/A Rain Rain
9:35 AM 51.8 °F 51.8 °F 100% 30.19 in 10.0 mi SSE 6.9 mph - N/A   Overcast
9:55 AM 51.8 °F 50.0 °F 94% 30.18 in 10.0 mi SSE 8.1 mph - N/A Rain Rain
10:15 AM 51.8 °F 51.8 °F 100% 30.18 in 10.0 mi SSE 5.8 mph - 0.01 in   Light Drizzle
10:35 AM 53.6 °F 51.8 °F 94% 30.19 in 10.0 mi SSE 5.8 mph - 0.01 in   Overcast
10:55 AM 55.4 °F 51.8 °F 88% 30.18 in 10.0 mi SSE 6.9 mph - 0.01 in   Overcast
11:15 AM 55.4 °F 53.6 °F 94% 30.18 in 10.0 mi SSE 4.6 mph - N/A   Overcast
11:35 AM 59.0 °F 53.6 °F 82% 30.18 in 10.0 mi SSE 4.6 mph - N/A   Overcast
11:55 AM 59.0 °F 51.8 °F 77% 30.18 in 10.0 mi SSE 4.6 mph - N/A   Mostly Cloudy
12:15 PM 60.8 °F 50.0 °F 68% 30.17 in 10.0 mi ESE 3.5 mph - N/A   Overcast
12:35 PM 62.6 °F 51.8 °F 68% 30.17 in 10.0 mi SSE 4.6 mph - N/A   Mostly Cloudy
12:55 PM 60.8 °F 50.0 °F 68% 30.16 in 10.0 mi Calm Calm - N/A   Scattered Clouds
1:15 PM 62.6 °F 50.0 °F 63% 30.16 in 10.0 mi Calm Calm - N/A   Mostly Cloudy
1:35 PM 62.6 °F 50.0 °F 63% 30.16 in 10.0 mi Calm Calm - N/A   Scattered Clouds
1:55 PM 64.4 °F 50.0 °F 59% 30.15 in 10.0 mi Calm Calm - N/A   Scattered Clouds
2:15 PM 64.4 °F 50.0 °F 59% 30.14 in 10.0 mi East 4.6 mph - N/A   Clear
2:35 PM 64.4 °F 50.0 °F 59% 30.13 in 10.0 mi ESE 4.6 mph - N/A   Scattered Clouds
2:55 PM 64.4 °F 51.8 °F 64% 30.12 in 10.0 mi ENE 8.1 mph - N/A   Mostly Cloudy
3:15 PM 64.4 °F 51.8 °F 64% 30.12 in 10.0 mi East 6.9 mph - N/A   Mostly Cloudy
3:35 PM 64.4 °F 50.0 °F 59% 30.11 in 10.0 mi NE 4.6 mph - N/A   Scattered Clouds
3:55 PM 64.4 °F 51.8 °F 64% 30.11 in 10.0 mi ENE 8.1 mph - N/A   Mostly Cloudy
4:15 PM 64.4 °F 51.8 °F 64% 30.11 in 10.0 mi East 9.2 mph - N/A   Mostly Cloudy
4:35 PM 64.4 °F 50.0 °F 59% 30.11 in 10.0 mi East 9.2 mph - N/A   Mostly Cloudy
4:55 PM 64.4 °F 50.0 °F 59% 30.11 in 10.0 mi East 9.2 mph - N/A   Overcast
5:15 PM 64.4 °F 50.0 °F 59% 30.11 in 10.0 mi East 6.9 mph - N/A   Overcast
5:35 PM 62.6 °F 50.0 °F 63% 30.11 in 10.0 mi East 6.9 mph - N/A   Overcast
5:55 PM 64.4 °F 50.0 °F 59% 30.11 in 10.0 mi East 6.9 mph - N/A   Overcast
6:15 PM 62.6 °F 50.0 °F 63% 30.11 in 10.0 mi East 8.1 mph - N/A   Overcast
6:35 PM 62.6 °F 50.0 °F 63% 30.12 in 10.0 mi East 8.1 mph - N/A   Overcast
6:55 PM 62.6 °F 50.0 °F 63% 30.11 in 10.0 mi East 9.2 mph - N/A   Overcast
7:15 PM 60.8 °F 50.0 °F 68% 30.11 in 10.0 mi East 6.9 mph - N/A   Overcast
7:35 PM 60.8 °F 50.0 °F 68% 30.11 in 10.0 mi East 5.8 mph - N/A   Mostly Cloudy
7:55 PM 59.0 °F 50.0 °F 72% 30.11 in 10.0 mi ESE 5.8 mph - N/A   Scattered Clouds
8:15 PM 59.0 °F 50.0 °F 72% 30.11 in 10.0 mi ESE 6.9 mph - N/A   Mostly Cloudy
8:35 PM 57.2 °F 48.2 °F 72% 30.11 in 10.0 mi ESE 6.9 mph - N/A   Overcast
8:55 PM 59.0 °F 48.2 °F 67% 30.12 in 10.0 mi ESE 6.9 mph - N/A   Overcast
9:15 PM 57.2 °F 48.2 °F 72% 30.12 in 10.0 mi ESE 8.1 mph - N/A   Mostly Cloudy
9:35 PM 57.2 °F 48.2 °F 72% 30.12 in 10.0 mi ESE 8.1 mph - N/A   Mostly Cloudy
9:55 PM 55.4 °F 48.2 °F 77% 30.13 in 10.0 mi ESE 8.1 mph - N/A   Overcast
10:15 PM 55.4 °F 46.4 °F 72% 30.13 in 10.0 mi SE 6.9 mph - N/A   Mostly Cloudy
10:35 PM 55.4 °F 46.4 °F 72% 30.12 in 10.0 mi ESE 9.2 mph - N/A   Mostly Cloudy
10:55 PM 55.4 °F 46.4 °F 72% 30.12 in 10.0 mi SE 6.9 mph - N/A   Scattered Clouds
11:15 PM 55.4 °F 46.4 °F 72% 30.12 in 10.0 mi ESE 9.2 mph - N/A   Mostly Cloudy
11:35 PM 55.4 °F 48.2 °F 77% 30.12 in 10.0 mi SE 9.2 mph - N/A   Overcast
11:55 PM 57.2 °F 48.2 °F 72% 30.12 in 10.0 mi SE 9.2 mph - N/A   Overcast